Location: Ariel
(45.9570°N, 122.5700°W)
Time: 18:09:14
(UTC-07:00)

Transit 4A - Pass Details

Date: 19 July 2019
Orbit: 863 x 981 km, 66.8° (Epoch: 21 August)

Event Time Altitude Azimuth Distance (km) Brightness Sun altitude
Rises 07:51:40 0° 314° (NW) 3,692 10.7 20.8°
Reaches altitude 10° 07:56:54 10° 350° (N) 2,736 10.4 21.7°
Maximum altitude 07:58:29 11° 5° (N) 2,665 10.5 21.9°
Drops below altitude 10° 08:00:04 10° 19° (NNE) 2,726 10.8 22.2°
Sets 08:05:14 0° 55° (NE) 3,648 12.0 23.1°
